Location: Allonne
(49.4086°N, 2.1143°E)
Time: 13:49:39
(UTC+00:00)

DMSP B5D2-2 - Pass Details

Date: 12 August 2024
Orbit: 787 x 802 km, 98.3° (Epoch: 09 September)

Event Time Altitude Azimuth Distance (km) Brightness Sun altitude
Rises 03:48:17 0° 177° (S) 3,272 7.0 -8.0°
Reaches altitude 10° 03:50:39 10° 182° (S) 2,346 6.2 -7.7°
Maximum altitude 03:55:44 55° 260° (W) 949 4.2 -7.0°
Drops below altitude 10° 04:00:50 10° 338° (NNW) 2,360 6.7 -6.3°
Sets 04:03:14 0° 343° (NNW) 3,294 7.5 -6.0°
